When you browse on this site, cookies collect data to enhance your experience and personalize the content and advertising you see.
Visit our Privacy Policy to learn more. By continuing to use the site, you agree to this use of cookies and data.
  • In Lithuania
  • List of Countries
  • For 7 days
  • Water Temperature
  • Weather Map
  • Weather Widgets
  • user-avatar
    Login

    Hourly Weather Setserleg

    Today, 22 November, Friday

    Time Temperature Precipitation Wind Pressure Humidity
    00:00 -9°C° 0.4 mm 2 mps 601 mmHg 89%
    01:00 -10°C° 0 mm 3 mps 602 mmHg 95%
    02:00 -12°C° 0.6 mm 3 mps 603 mmHg 91%
    03:00 -13°C° 0.6 mm 3 mps 603 mmHg 87%
    04:00 -14°C° 0.6 mm 3 mps 604 mmHg 84%
    05:00 -15°C° 0 mm 2 mps 604 mmHg 81%
    06:00 -16°C° 0 mm 2 mps 605 mmHg 77%
    07:00 -18°C° 0 mm 2 mps 605 mmHg 63%
    08:00 -16°C° 0 mm 1 mps 606 mmHg 60%
    09:00 -15°C° 0 mm 1 mps 607 mmHg 57%
    10:00 -15°C° 0 mm 1 mps 608 mmHg 55%
    11:00 -15°C° 0 mm 1 mps 608 mmHg 52%
    12:00 -14°C° 0 mm 1 mps 608 mmHg 49%
    13:00 -14°C° 0 mm 1 mps 608 mmHg 48%
    14:00 -14°C° 0 mm 1 mps 607 mmHg 52%
    15:00 -15°C° 0 mm 1 mps 607 mmHg 57%
    16:00 -16°C° 0 mm 0 mps 607 mmHg 61%
    17:00 -16°C° 0 mm 0 mps 607 mmHg 63%
    18:00 -17°C° 0 mm 1 mps 607 mmHg 66%
    19:00 -17°C° 0 mm 1 mps 607 mmHg 69%
    20:00 -17°C° 0 mm 0 mps 608 mmHg 70%
    21:00 -17°C° 0 mm 0 mps 608 mmHg 71%
    22:00 -18°C° 0 mm 0 mps 608 mmHg 72%
    23:00 -18°C° 0 mm 0 mps 608 mmHg 72%

    Tomorrow, 23 November, Saturday

    Time Temperature Precipitation Wind Pressure Humidity
    00:00 -18°C° 0 mm 1 mps 608 mmHg 73%
    01:00 -18°C° 0 mm 1 mps 608 mmHg 73%
    02:00 -18°C° 0 mm 1 mps 608 mmHg 73%
    03:00 -18°C° 0 mm 1 mps 609 mmHg 74%
    04:00 -20°C° 0 mm 2 mps 609 mmHg 74%
    05:00 -21°C° 0 mm 2 mps 609 mmHg 71%
    06:00 -21°C° 0 mm 2 mps 610 mmHg 68%
    07:00 -23°C° 0 mm 3 mps 610 mmHg 65%
    08:00 -23°C° 0 mm 4 mps 611 mmHg 62%
    09:00 -22°C° 0 mm 4 mps 612 mmHg 58%
    10:00 -21°C° 0 mm 5 mps 613 mmHg 55%
    11:00 -22°C° 0 mm 6 mps 614 mmHg 54%
    12:00 -22°C° 0 mm 6 mps 614 mmHg 54%
    13:00 -21°C° 0 mm 7 mps 614 mmHg 53%
    14:00 -22°C° 0 mm 6 mps 614 mmHg 56%
    15:00 -23°C° 0 mm 6 mps 615 mmHg 59%
    16:00 -22°C° 0 mm 5 mps 615 mmHg 62%
    17:00 -24°C° 0 mm 5 mps 615 mmHg 62%
    18:00 -24°C° 0 mm 4 mps 616 mmHg 62%
    19:00 -25°C° 0 mm 4 mps 616 mmHg 62%
    20:00 -25°C° 0 mm 4 mps 616 mmHg 61%
    21:00 -25°C° 0 mm 4 mps 617 mmHg 60%
    22:00 -25°C° 0 mm 4 mps 617 mmHg 59%
    23:00 -24°C° 0 mm 3 mps 617 mmHg 58%

    Day after tomorrow, 24 November, Sunday

    Time Temperature Precipitation Wind Pressure Humidity
    00:00 -24°C° 0 mm 3 mps 617 mmHg 58%
    01:00 -24°C° 0 mm 3 mps 617 mmHg 58%
    02:00 -24°C° 0 mm 3 mps 617 mmHg 57%
    03:00 -24°C° 0 mm 3 mps 617 mmHg 57%
    04:00 -24°C° 0 mm 3 mps 617 mmHg 57%
    05:00 -24°C° 0 mm 3 mps 617 mmHg 56%
    06:00 -24°C° 0 mm 3 mps 617 mmHg 56%
    07:00 -23°C° 0 mm 2 mps 616 mmHg 55%
    08:00 -20°C° 0 mm 2 mps 617 mmHg 55%
    09:00 -19°C° 0 mm 2 mps 617 mmHg 55%
    10:00 -17°C° 0 mm 2 mps 617 mmHg 55%
    11:00 -15°C° 0 mm 2 mps 617 mmHg 54%
    12:00 -12°C° 0 mm 1 mps 616 mmHg 52%
    13:00 -10°C° 0 mm 1 mps 616 mmHg 51%
    14:00 -11°C° 0 mm 1 mps 616 mmHg 54%
    15:00 -11°C° 0 mm 1 mps 615 mmHg 57%
    16:00 -12°C° 0 mm 1 mps 614 mmHg 59%
    17:00 -13°C° 0 mm 1 mps 614 mmHg 58%
    18:00 -16°C° 0 mm 2 mps 613 mmHg 57%
    19:00 -16°C° 0 mm 2 mps 613 mmHg 56%
    20:00 -16°C° 0 mm 2 mps 612 mmHg 53%
    21:00 -17°C° 0 mm 2 mps 612 mmHg 51%
    22:00 -17°C° 0 mm 2 mps 611 mmHg 49%
    23:00 -17°C° 0 mm 2 mps 611 mmHg 48%

    25 November, Monday

    Time Temperature Precipitation Wind Pressure Humidity
    00:00 -16°C° 0 mm 2 mps 611 mmHg 48%
    01:00 -16°C° 0 mm 2 mps 611 mmHg 48%
    02:00 -16°C° 0 mm 2 mps 610 mmHg 48%
    03:00 -15°C° 0 mm 2 mps 610 mmHg 49%
    04:00 -15°C° 0 mm 2 mps 610 mmHg 49%
    05:00 -15°C° 0 mm 2 mps 609 mmHg 49%
    06:00 -15°C° 0 mm 2 mps 609 mmHg 48%
    07:00 -14°C° 0 mm 2 mps 609 mmHg 48%
    08:00 -13°C° 0 mm 2 mps 610 mmHg 49%
    09:00 -12°C° 0 mm 2 mps 610 mmHg 50%
    10:00 -9°C° 0 mm 1 mps 610 mmHg 51%
    11:00 -8°C° 0 mm 1 mps 611 mmHg 50%
    12:00 -7°C° 0 mm 1 mps 611 mmHg 50%
    13:00 -6°C° 0 mm 1 mps 611 mmHg 49%
    14:00 -8°C° 0 mm 1 mps 611 mmHg 51%
    15:00 -9°C° 0 mm 1 mps 611 mmHg 53%
    16:00 -10°C° 0 mm 1 mps 610 mmHg 55%
    17:00 -11°C° 0 mm 1 mps 611 mmHg 56%
    18:00 -14°C° 0 mm 2 mps 611 mmHg 56%
    19:00 -15°C° 0 mm 2 mps 612 mmHg 57%
    20:00 -16°C° 0 mm 2 mps 612 mmHg 58%
    21:00 -16°C° 0 mm 2 mps 613 mmHg 58%
    22:00 -16°C° 0 mm 2 mps 613 mmHg 59%
    23:00 -17°C° 0 mm 2 mps 613 mmHg 60%

    26 November, Tuesday

    Time Temperature Precipitation Wind Pressure Humidity
    00:00 -17°C° 0 mm 2 mps 614 mmHg 61%
    01:00 -15°C° 0 mm 1 mps 614 mmHg 62%
    02:00 -16°C° 0 mm 1 mps 614 mmHg 63%
    03:00 -18°C° 0 mm 2 mps 614 mmHg 64%
    04:00 -18°C° 0 mm 2 mps 615 mmHg 65%
    05:00 -18°C° 0 mm 2 mps 615 mmHg 65%
    06:00 -18°C° 0 mm 2 mps 615 mmHg 65%
    07:00 -17°C° 0 mm 1 mps 615 mmHg 65%
    08:00 -15°C° 0 mm 1 mps 616 mmHg 64%
    09:00 -14°C° 0 mm 1 mps 617 mmHg 63%
    10:00 -13°C° 0 mm 1 mps 618 mmHg 62%
    11:00 -12°C° 0 mm 1 mps 618 mmHg 59%
    12:00 -11°C° 0 mm 1 mps 618 mmHg 56%
    13:00 -10°C° 0 mm 0 mps 618 mmHg 53%
    14:00 -11°C° 0 mm 0 mps 618 mmHg 57%
    15:00 -12°C° 0 mm 0 mps 617 mmHg 62%
    16:00 -14°C° 0 mm 0 mps 617 mmHg 67%
    17:00 -14°C° 0 mm 0 mps 617 mmHg 67%
    18:00 -15°C° 0 mm 0 mps 617 mmHg 67%
    19:00 -15°C° 0 mm 1 mps 617 mmHg 67%
    20:00 -15°C° 0 mm 1 mps 617 mmHg 66%
    21:00 -16°C° 0 mm 1 mps 617 mmHg 66%
    22:00 -16°C° 0 mm 1 mps 617 mmHg 65%
    23:00 -16°C° 0 mm 1 mps 617 mmHg 64%

    27 November, Wednesday

    Time Temperature Precipitation Wind Pressure Humidity
    00:00 -16°C° 0 mm 1 mps 616 mmHg 62%
    01:00 -16°C° 0 mm 1 mps 616 mmHg 61%
    02:00 -16°C° 0 mm 1 mps 616 mmHg 60%
    03:00 -16°C° 0 mm 1 mps 616 mmHg 59%
    04:00 -16°C° 0 mm 1 mps 616 mmHg 58%
    05:00 -16°C° 0 mm 1 mps 615 mmHg 58%
    06:00 -16°C° 0 mm 1 mps 615 mmHg 58%
    07:00 -16°C° 0 mm 1 mps 615 mmHg 58%
    08:00 -15°C° 0 mm 1 mps 616 mmHg 58%
    09:00 -14°C° 0 mm 1 mps 616 mmHg 58%
    10:00 -13°C° 0 mm 1 mps 617 mmHg 58%
    11:00 -11°C° 0 mm 1 mps 617 mmHg 57%
    12:00 -10°C° 0 mm 1 mps 617 mmHg 56%
    13:00 -9°C° 0 mm 1 mps 617 mmHg 55%
    14:00 -10°C° 0 mm 1 mps 616 mmHg 58%
    15:00 -11°C° 0 mm 1 mps 616 mmHg 62%
    16:00 -12°C° 0 mm 1 mps 615 mmHg 65%
    17:00 -13°C° 0 mm 1 mps 615 mmHg 65%
    18:00 -13°C° 0 mm 1 mps 615 mmHg 65%
    19:00 -15°C° 0 mm 2 mps 615 mmHg 65%
    20:00 -15°C° 0 mm 2 mps 615 mmHg 63%
    21:00 -15°C° 0 mm 2 mps 615 mmHg 61%
    22:00 -15°C° 0 mm 2 mps 615 mmHg 59%
    23:00 -15°C° 0 mm 2 mps 615 mmHg 57%
    Show more